Weather History for KAAF - February, 2014

Change the Weather History Date:

Saturday, February 1, 2014

  Actual Average Record
Temperature  
Mean Temperature 59 °F 53 °F  
Max Temperature 64 °F 64 °F 78 °F (1989)
Min Temperature 54 °F 42 °F 26 °F (1977)
Degree Days  
Heating Degree Days 6    
Month to date heating degree days 6  
Since 1 July heating degree days 761  
Cooling Degree Days 0    
Month to date cooling degree days 0  
Year to date cooling degree days 1  
Growing Degree Days 8 (Base 50)    
Moisture  
Dew Point 54 °F    
Average Humidity 86    
Maximum Humidity 93    
Minimum Humidity 78    
Precipitation  
Precipitation 0.01 in 0.14 in 3.87 in (2007)
Month to date precipitation 0.01 0.14  
Year to date precipitation 5.49 4.54  
Sea Level Pressure  
Sea Level Pressure 30.11 in    
Wind  
Wind Speed 3 mph (East)    
Max Wind Speed 10 mph    
Max Gust Speed 13 mph    
Visibility 5 miles    
Events Fog , Rain    
T = Trace of Precipitation, MM = Missing Value Source: NWS Daily Summary

Daily Weather History Graph

Daily Weather History Graph

Search for Another Location

Airport or City:

Trip Planner

Search our weather history database for the weather conditions in past years. The results will help you decide how hot, cold, wet, or windy it might be!

Date:

Astronomy

Feb. 01, 2014 Rise Set
Actual Time 7:29 AM EST 6:17 PM EST
Civil Twilight 7:04 AM EST 6:42 PM EST
Nautical Twilight 6:36 AM EST 7:11 PM EST
Astronomical Twilight 6:08 AM EST 7:39 PM EST
Moon 8:31 AM EST (2/1) 8:37 PM EST (2/1)
Length of Visible Light 11h 37m
Length of Day
10h 47m
Waxing Crescent, 5% of the Moon is Illuminated
Feb 1
Waxing Crescent
Feb 6
First Quarter
Feb 14
Full
Feb 22
Last Quarter
Mar 1
New

Hourly Weather History & Observations

Time (EST) Temp. Dew Point Humidity Pressure Visibility Wind Dir Wind Speed Gust Speed Precip Events Conditions
12:05 AM 57.2 °F 51.8 °F 82% 30.10 in 10.0 mi Calm Calm - N/A   Overcast
12:53 AM 57.9 °F 51.1 °F 78% 30.10 in 10.0 mi Calm Calm - N/A   Overcast
1:40 AM 57.2 °F 51.8 °F 82% 30.09 in 10.0 mi ENE 3.5 mph - N/A   Overcast
1:53 AM 57.9 °F 52.0 °F 81% 30.09 in 10.0 mi ENE 5.8 mph - N/A   Overcast
2:53 AM 57.9 °F 52.0 °F 81% 30.09 in 10.0 mi Calm Calm - N/A   Overcast
3:43 AM 55.4 °F 53.6 °F 94% 30.09 in 2.5 mi NNW 4.6 mph - 0.00 in Rain Light Rain
3:53 AM 55.9 °F 53.1 °F 90% 30.08 in 2.5 mi NNW 3.5 mph - 0.01 in Rain Light Rain
4:01 AM 55.4 °F 53.6 °F 94% 30.08 in 3.0 mi Calm Calm - 0.00 in   Overcast
4:53 AM 55.0 °F 52.0 °F 89% 30.07 in 5.0 mi ENE 3.5 mph - 0.00 in   Overcast
5:16 AM 55.4 °F 51.8 °F 88% 30.07 in 4.0 mi NE 3.5 mph - N/A   Overcast
5:53 AM 55.0 °F 52.0 °F 89% 30.09 in 4.0 mi North 3.5 mph - N/A   Overcast
6:14 AM 55.4 °F 51.8 °F 88% 30.09 in 2.0 mi Calm Calm - N/A   Overcast
6:53 AM 54.0 °F 51.1 °F 90% 30.11 in 3.0 mi North 4.6 mph - N/A   Overcast
7:50 AM 53.6 °F 51.8 °F 94% 30.11 in 2.0 mi NNE 3.5 mph - N/A   Overcast
7:53 AM 54.0 °F 51.1 °F 90% 30.11 in 1.8 mi NNE 4.6 mph - N/A   Overcast
8:11 AM 53.6 °F 51.8 °F 94% 30.12 in 0.8 mi NNE 3.5 mph - N/A   Overcast
8:18 AM 53.6 °F 51.8 °F 94% 30.12 in 1.5 mi NNE 3.5 mph - N/A   Overcast
8:26 AM 55.4 °F 51.8 °F 88% 30.13 in 3.0 mi NE 3.5 mph - N/A   Overcast
8:53 AM 55.0 °F 52.0 °F 89% 30.13 in 3.0 mi NE 4.6 mph - N/A   Overcast
9:53 AM 57.0 °F 54.0 °F 89% 30.14 in 9.0 mi ENE 4.6 mph - N/A   Overcast
10:14 AM 57.2 °F 53.6 °F 88% 30.15 in 10.0 mi East 4.6 mph - N/A   Overcast
10:53 AM 60.1 °F 55.0 °F 83% 30.14 in 10.0 mi ENE 4.6 mph - N/A   Overcast
11:53 AM 63.0 °F 55.0 °F 75% 30.13 in 10.0 mi Calm Calm - N/A   Overcast
12:53 PM 63.0 °F 55.0 °F 75% 30.12 in 10.0 mi Variable 4.6 mph - N/A   Overcast
1:53 PM 63.0 °F 55.0 °F 75% 30.10 in 10.0 mi South 5.8 mph - N/A   Overcast
2:18 PM 62.6 °F 55.4 °F 77% 30.09 in 10.0 mi SSE 5.8 mph - N/A   Overcast
2:53 PM 61.0 °F 54.0 °F 78% 30.09 in 10.0 mi SSE 6.9 mph - N/A   Overcast
3:53 PM 60.1 °F 54.0 °F 80% 30.08 in 10.0 mi SSE 6.9 mph - N/A   Overcast
4:53 PM 60.1 °F 55.0 °F 83% 30.10 in 9.0 mi Calm Calm - N/A   Overcast
5:34 PM 59.0 °F 55.4 °F 88% 30.10 in 1.8 mi South 4.6 mph - N/A   Overcast
5:46 PM 59.0 °F 55.4 °F 88% 30.10 in 0.8 mi South 5.8 mph - N/A   Overcast
5:53 PM 57.9 °F 55.0 °F 90% 30.11 in 0.5 mi South 4.6 mph - N/A Fog Fog
6:00 PM 57.2 °F 55.4 °F 94% 30.11 in 0.2 mi South 3.5 mph - N/A Fog Fog
6:35 PM 57.2 °F 55.4 °F 94% 30.11 in 0.8 mi Calm Calm - N/A   Mist
6:53 PM 57.9 °F 55.0 °F 90% 30.11 in 0.8 mi Calm Calm - N/A   Mist
7:35 PM 57.2 °F 55.4 °F 94% 30.12 in 1.0 mi Calm Calm - N/A   Mist
7:53 PM 57.9 °F 55.0 °F 90% 30.12 in 0.8 mi South 5.8 mph - N/A   Mist
8:53 PM 57.9 °F 55.0 °F 90% 30.13 in 0.2 mi SSE 4.6 mph - N/A Fog Fog
9:39 PM 57.2 °F 55.4 °F 94% 30.13 in 0.5 mi Calm Calm - N/A Fog Fog
9:53 PM 57.9 °F 55.0 °F 90% 30.14 in 0.5 mi Calm Calm - N/A Fog Fog
10:53 PM 57.0 °F 54.0 °F 89% 30.14 in 0.8 mi East 3.5 mph - N/A   Mist
11:29 PM 57.2 °F 53.6 °F 88% 30.13 in 1.2 mi SE 3.5 mph - N/A   Overcast
11:42 PM 57.2 °F 53.6 °F 88% 30.13 in 0.8 mi Calm Calm - N/A   Mist
11:53 PM 57.0 °F 55.0 °F 93% 30.14 in 0.8 mi Calm Calm - N/A   Mist